Location: La Bastide
(43.1661°N, 1.2755°E)
Time: 02:36:10
(UTC+00:00)

Cosmos 2333 Rocket - Pass Details

Date: 13 December 2025
Orbit: 837 x 865 km, 70.8° (Epoch: 12 January)

Event Time Altitude Azimuth Distance (km) Brightness Sun altitude
Rises 18:23:49 0° 175° (S) 3,410 5.4 -21.7°
Reaches altitude 10° 18:26:29 10° 165° (SSE) 2,483 4.6 -22.2°
Enters shadow 18:29:35 26° 139° (SE) 1,626 3.4 -22.7°
